Regional Weather Roundup
Issued by NWS Midland/Odessa, TX

Home | Current Version | Previous Version | Text Only | Print | Product List | Glossary On
Versions: 1 2 3 4 5 6 7 8 9 10 11 12 13 14 15 16 17 18 19 20 21 22 23 24 25 26 27 28 29 30 31 32 33 34 35 36 37 38 39 40 41 42 43 44 45 46 47 48 49 50
000
ASUS44 KMAF 311810
RWRMAF
MIDLAND AREA WEATHER ROUNDUP
NATIONAL WEATHER SERVICE MIDLAND TX
100 PM CDT MON AUG 31 2015

...IN SOUTHWEST TEXAS AND SOUTHEAST NEW MEXICO...

CITY           SKY/WX    TMP DP  RH WIND       PRES   REMARKS
ALPINE         SUNNY     85  45  24 S5        30.20F
ANDREWS        FAIR      86  54  32 S10       30.09F
ARTESIA        SUNNY     88  52  29 SE15G22   30.06F
BIG SPRING     SUNNY     85  54  34 S10G17    30.08F
CARLSBAD       SUNNY     91  50  24 SE15G21   30.05F
DRYDEN           N/A     90  62  39 SE6G17    30.03F
FORT STOCKTON  SUNNY     90  52  27 S8        30.07S
GUAD PASS      SUNNY     83  50  31 SW13      30.22F
HOBBS          SUNNY     84  46  26 SE12G21   30.10F
MARFA          SUNNY     82  48  30 SW7       30.20S
MIDLAND AIRPK  SUNNY     89  53  29 SE12G18   30.07F
MIDLAND INTL   SUNNY     88  55  32 SE9G22    30.06F
ODESSA         SUNNY     88  53  30 SE15      30.08F
PECOS          SUNNY     90  51  26 E7        30.03F
PRESIDIO       NOT AVBL
SEMINOLE       SUNNY     88  47  24 S8        30.10F
SNYDER         SUNNY     87  59  38 SE7       30.06F
WINK           SUNNY     90  53  28 SE12      30.04F
$$
...OTHER STATIONS IN TEXAS...

CITY           SKY/WX    TMP DP  RH WIND       PRES   REMARKS
ABILENE        SUNNY     89  61  38 SW8       30.05F
AMARILLO       SUNNY     87  53  31 S21       30.07F
AUSTIN         MOSUNNY   90  66  45 VRB3      30.01F
BROWNSVILLE    HVY RAIN  83  76  79 E15       29.96F
CORPUS CHRISTI PTSUNNY   79  70  73 NW20G29   29.99R THUNDER
DALLAS FTW     MOSUNNY   91  63  39 E9        30.02F
DEL RIO        SUNNY     92  67  43 S10       29.98F
EL PASO        SUNNY     87  46  24 S7        30.09F
HOUSTON INT    CLOUDY    84  72  67 E10       30.05S
LUBBOCK        SUNNY     88  47  24 S16       30.08F
SAN ANGELO     MOSUNNY   91  60  35 S8        30.04F
SAN ANTONIO    PTSUNNY   90  67  46 S9        30.03F
WACO           SUNNY     89  67  47 S6        30.03F
WICHITA FALLS  NOT AVBL
$$
...OTHER LOCATIONS IN NEW MEXICO...

CITY           SKY/WX    TMP DP  RH WIND       PRES   REMARKS
ALAMAGORDO     SUNNY     88  46  23 N6        30.11F
ALBUQUERQUE    MOSUNNY   83  48  29 NW7       30.19F
CANNON AFB     SUNNY     87  49  27 SW12G21   30.10F
CLOVIS         SUNNY     88  50  27 S18G24    30.11F
HOLLOMAN AFB   SUNNY     87  46  23 VRB2      30.08F
ROSWELL        SUNNY     82  54  37 S17       30.07F
RUIDOSO        SUNNY     79  46  31 MISG      30.30F
SANTA FE       SUNNY     83  44  25 N12G17    30.24F
TRUTH OR CONSE SUNNY     88  51  28 MISG      30.14F
TUCUMCARI      SUNNY     90  52  27 SW13      30.04F
$$




USA.gov is the U.S. government's official web portal to all federal, state and local government web resources and services.